Location: Yecla
(38.6122°N, 1.1101°W)
Time: 22:47:04
(UTC+02:00)

ISS - Pass Details

Date: 22 May 2019
Orbit: 408 x 418 km, 51.6° (Epoch: 18 June)

Event Time Altitude Azimuth Distance (km) Brightness Sun altitude
Rises 22:33:33 0° 271° (W) 2,342 0.9 -13.5°
Reaches altitude 10° 22:36:07 10° 291° (WNW) 1,485 0.2 -13.9°
Maximum altitude 22:38:29 18° 337° (NNW) 1,102 -0.7 -14.2°
Drops below altitude 10° 22:40:52 10° 22° (NNE) 1,494 -0.7 -14.6°
Sets 22:43:27 0° 43° (NE) 2,362 0.1 -15.0°
